Regional Weather Roundup
Issued by NWS Midland/Odessa, TX

Skip options and go directly to product.
Home | Oldest Version | Previous Version | Current Version | All | Graphics & Text | Save Text | Print | Product List | Glossary On

Skip product version selection by date and time.   
026
ASUS44 KMAF 211010
RWRMAF
MIDLAND AREA WEATHER ROUNDUP
NATIONAL WEATHER SERVICE MIDLAND TX
500 AM CDT TUE OCT 21 2014

...IN SOUTHWEST TEXAS AND SOUTHEAST NEW MEXICO...

CITY           SKY/WX    TMP DP  RH WIND       PRES   REMARKS
ALPINE         CLOUDY    60  56  89 E6        30.16F
ANDREWS        FAIR      58  51  79 SW5       30.10S
ARTESIA        NOT AVBL
BIG SPRING     CLEAR     59  53  79 SE6       30.10S
CARLSBAD       CLOUDY    61  57  87 NW8       30.08S
DRYDEN           N/A     65  62  90 NE5       30.02S
FORT STOCKTON  CLOUDY    61  59  93 SE3       30.08S
GUAD PASS      FOG       54  54 100 NE16      30.15S VSB 1/4
HOBBS          CLOUDY    57  55  94 CALM      30.11F
MARFA          CLOUDY    54  52  94 S9        30.15R THUNDER
MIDLAND AIRPK  MOCLDY    61  53  73 CALM      30.09S
MIDLAND INTL   MOCLDY    60  51  72 CALM      30.08S
ODESSA         PTCLDY    60  51  72 SE3       30.09S
PECOS          CLOUDY    62  60  93 S5        30.06S
PRESIDIO       LGT RAIN  64  61  92 N12       30.01F
SEMINOLE       PTCLDY    55  50  85 CALM      30.11S
SNYDER         CLEAR     57  52  84 SE3       30.09S
WINK           MOCLDY    61  59  93 E5        30.06S
$$
...OTHER STATIONS IN TEXAS...

CITY           SKY/WX    TMP DP  RH WIND       PRES   REMARKS
ABILENE        CLEAR     60  54  80 S6        30.07S
AMARILLO       PTCLDY    53  50  89 SW7       30.11S
AUSTIN         CLEAR     59  58  96 CALM      30.03R
BROWNSVILLE    CLEAR     71  69  93 CALM      29.90S
CORPUS CHRISTI PTCLDY    72  68  87 NE9       29.95S
DALLAS FTW     PTCLDY    62  58  86 CALM      30.04S
DEL RIO        MOCLDY    67  59  75 E6        30.00S
EL PASO        PTCLDY    59  54  83 N7        30.06F
HOUSTON INT    PTCLDY    58  55  90 CALM      30.01S
LUBBOCK        PTCLDY    55  49  80 CALM      30.10S
SAN ANGELO     PTCLDY    56  50  80 W3        30.07R
SAN ANTONIO    PTCLDY    64  58  80 CALM      30.03S
WACO           CLEAR     56  55  97 CALM      30.05R FOG
WICHITA FALLS  NOT AVBL
$$
...OTHER LOCATIONS IN NEW MEXICO...

CITY           SKY/WX    TMP DP  RH WIND       PRES   REMARKS
ALAMAGORDO     NOT AVBL
ALBUQUERQUE    PTCLDY    53  47  79 N6        30.15F
CANNON AFB     PTCLDY    53  50  90 NW7       30.13S
CLOVIS         NOT AVBL
HOLLOMAN AFB   FOG       54  54 100 E5        30.07F VSB 1/4
ROSWELL        LGT RAIN  58  55  90 W3        30.11S
RUIDOSO        CLOUDY    46  45  93 SW5       30.22S
SANTA FE       CLOUDY    49  45  86 SE6       30.19F
TRUTH OR CONSE CLOUDY    55  53  93 CALM      30.11R
TUCUMCARI      CLEAR     53  46  77 W6        30.11S
$$

USA.gov is the U.S. government's official web portal to all federal, state and local government web resources and services.